Location: Contre
(49.7477°N, 2.0963°E)
Time: 00:27:27
(UTC+00:00)

MINOTAUR 4 R/B - Pass Details

Date: 03 February 2023
Orbit: 448 x 453 km, 98.0° (Epoch: 21 March)

Event Time Altitude Azimuth Distance (km) Brightness Sun altitude
Exits shadow 17:18:51 - 75° (ENE) 1,858 6.3 -5.2°
Enters shadow 18:36:21 -29° 10° (N) 7,083 9.9 -17.4°
Maximum altitude 18:53:03 85° 103° (ESE) 458 3.7 -20.1°
